Weather History for Dunkirk, NY

Change the Weather History Date:

Monday, December 10, 2012

  Actual Average Record
Temperature  
Mean Temperature 44 °F -  
Max Temperature 53 °F 38 °F 63 °F (1971)
Min Temperature 36 °F 27 °F 0 °F (1934)
Degree Days  
Heating Degree Days 20    
Moisture  
Dew Point 40 °F    
Average Humidity 85    
Maximum Humidity 100    
Minimum Humidity 73    
Precipitation  
Precipitation 0.18 in - - ()
Sea Level Pressure  
Sea Level Pressure 29.63 in    
Wind  
Wind Speed 15 mph (WSW)    
Max Wind Speed 22 mph    
Max Gust Speed 41 mph    
Visibility 9 miles    
Events Rain    
Averages and records for this station are not official NWS values.
T = Trace of Precipitation, MM = Missing Value Source: NWS Daily Summary

Daily Weather History Graph

Daily Weather History Graph

Search for Another Location

Airport:

Trip Planner

Search our weather history database for the weather conditions in past years. The results will help you decide how hot, cold, wet, or windy it might be!

Date:

Astronomy

Dec. 10, 2012 Rise Set
Actual Time 7:36 AM EST 4:44 PM EST
Civil Twilight 7:04 AM EST 5:15 PM EST
Nautical Twilight 6:28 AM EST 5:51 PM EST
Astronomical Twilight 5:54 AM EST 6:25 PM EST
Moon 4:15 AM EST (12/10) 2:34 PM EST (12/10)
Length of Visible Light 10h 11m
Length of Day
9h 07m
Waning Crescent, 10% of the Moon is Illuminated
Dec 10
Waning Crescent
Dec 13
New
Dec 20
First Quarter
Dec 28
Full
Jan 4
Last Quarter

Hourly Weather History & Observations

Time (EST) Temp. Windchill Dew Point Humidity Pressure Visibility Wind Dir Wind Speed Gust Speed Precip Events Conditions
12:53 AM 51.1 °F - 46.0 °F 83% 29.67 in 10.0 mi South 20.7 mph 28.8 mph 0.01 in Rain Light Rain
1:53 AM 50.0 °F - 46.0 °F 86% 29.65 in 9.0 mi South 19.6 mph 27.6 mph 0.04 in Rain Light Rain
2:53 AM 50.0 °F - 46.0 °F 86% 29.63 in 9.0 mi South 15.0 mph - 0.06 in Rain Light Rain
3:53 AM 52.0 °F - 46.9 °F 83% 29.59 in 10.0 mi South 15.0 mph 21.9 mph 0.04 in Rain Light Rain
4:53 AM 52.0 °F - 48.0 °F 86% 29.56 in 10.0 mi South 15.0 mph - 0.00 in Rain Light Rain
5:53 AM 53.1 °F - 48.9 °F 86% 29.54 in 10.0 mi SSW 16.1 mph 23.0 mph 0.00 in   Overcast
6:00 AM 53.6 °F - 48.2 °F 82% 29.53 in 10.0 mi SW 13.8 mph 23.0 mph N/A   Overcast
7:17 AM 53.6 °F - 50.0 °F 88% 29.56 in 10.0 mi WSW 21.9 mph 41.4 mph 0.01 in Rain Light Rain
7:21 AM 51.8 °F - 48.2 °F 88% 29.56 in 10.0 mi WSW 17.3 mph 33.4 mph 0.01 in   Overcast
7:49 AM 48.2 °F - 46.4 °F 93% 29.57 in 4.0 mi WSW 15.0 mph 21.9 mph 0.01 in   Overcast
7:53 AM 48.0 °F - 46.9 °F 96% 29.59 in 3.0 mi WSW 15.0 mph 21.9 mph 0.01 in   Overcast
8:03 AM 48.2 °F - 46.4 °F 93% 29.57 in 2.5 mi WSW 11.5 mph 19.6 mph N/A   Overcast
8:11 AM 48.2 °F - 46.4 °F 93% 29.58 in 4.0 mi WSW 15.0 mph - N/A   Overcast
8:53 AM 46.0 °F 38.5 °F 45.0 °F 96% 29.60 in 5.0 mi WSW 19.6 mph 32.2 mph 0.00 in   Overcast
9:27 AM 44.6 °F 37.2 °F 44.6 °F 100% 29.60 in 10.0 mi WSW 17.3 mph 27.6 mph N/A   Overcast
9:53 AM 45.0 °F 37.9 °F 42.1 °F 90% 29.62 in 6.0 mi WSW 16.1 mph 25.3 mph N/A   Overcast
10:29 AM 42.8 °F 36.6 °F 39.2 °F 87% 29.62 in 10.0 mi West 11.5 mph 24.2 mph N/A   Overcast
10:41 AM 42.8 °F 35.4 °F 39.2 °F 87% 29.63 in 9.0 mi WSW 15.0 mph 20.7 mph N/A   Overcast
10:53 AM 43.0 °F 37.2 °F 39.9 °F 89% 29.64 in 8.0 mi WSW 10.4 mph 18.4 mph 0.00 in   Overcast
11:53 AM 42.1 °F 37.7 °F 39.9 °F 92% 29.61 in 5.0 mi West 6.9 mph - 0.00 in Rain Light Rain
12:22 PM 42.8 °F 37.5 °F 39.2 °F 87% 29.60 in 8.0 mi WSW 9.2 mph - 0.00 in Rain Light Rain
12:53 PM 42.1 °F 37.7 °F 39.0 °F 89% 29.60 in 10.0 mi West 6.9 mph - 0.00 in   Overcast
1:53 PM 42.1 °F 36.1 °F 37.9 °F 85% 29.60 in 10.0 mi West 10.4 mph - 0.00 in Rain Light Rain
2:26 PM 42.8 °F 35.8 °F 35.6 °F 76% 29.59 in 10.0 mi West 13.8 mph 21.9 mph 0.01 in   Overcast
2:53 PM 42.1 °F 35.7 °F 36.0 °F 79% 29.60 in 10.0 mi West 11.5 mph 17.3 mph 0.01 in   Overcast
3:30 PM 42.8 °F 38.0 °F 35.6 °F 76% 29.60 in 10.0 mi WSW 8.1 mph - N/A   Overcast
3:53 PM 42.1 °F 37.7 °F 37.0 °F 82% 29.62 in 10.0 mi West 6.9 mph - 0.00 in Rain Light Rain
4:53 PM 41.0 °F 35.8 °F 35.1 °F 79% 29.65 in 10.0 mi WNW 8.1 mph - 0.00 in   Overcast
5:19 PM 41.0 °F 35.8 °F 33.8 °F 76% 29.65 in 10.0 mi West 8.1 mph - 0.00 in   Overcast
5:53 PM 41.0 °F 35.8 °F 34.0 °F 76% 29.65 in 10.0 mi NW 8.1 mph - 0.00 in   Overcast
6:06 PM 41.0 °F 34.7 °F 33.8 °F 76% 29.64 in 10.0 mi NW 10.4 mph - N/A   Overcast
6:34 PM 39.2 °F 31.6 °F 33.8 °F 81% 29.67 in 10.0 mi NW 12.7 mph 20.7 mph N/A   Overcast
6:53 PM 39.9 °F 33.9 °F 32.0 °F 73% 29.69 in 10.0 mi WNW 9.2 mph - N/A   Overcast
7:23 PM 39.2 °F 33.0 °F 32.0 °F 75% 29.69 in 10.0 mi WNW 9.2 mph - N/A   Overcast
7:53 PM 37.9 °F 32.1 °F 32.0 °F 79% 29.71 in 10.0 mi WNW 8.1 mph - 0.00 in Rain Light Rain
8:53 PM 36.0 °F 31.1 °F 34.0 °F 93% 29.73 in 10.0 mi SSW 5.8 mph - 0.01 in   Overcast
9:53 PM 37.9 °F 32.1 °F 32.0 °F 79% 29.73 in 10.0 mi WNW 8.1 mph - 0.00 in   Overcast
10:53 PM 36.0 °F 29.0 °F 30.9 °F 82% 29.77 in 10.0 mi NNW 9.2 mph - N/A   Overcast
11:53 PM 36.0 °F 28.5 °F 30.0 °F 79% 29.79 in 10.0 mi NNW 10.4 mph - N/A   Overcast